Regional Weather Roundup
Issued by NWS

Home | Current Version | Previous Version | Graphics & Text | Print | Product List | Glossary On
Versions: 1 2 3 4 5 6 7 8 9 10 11 12 13 14 15 16 17 18 19 20 21 22 23 24 25 26 27 28 29 30 31 32 33 34 35 36 37 38 39 40 41 42 43 44 45 46 47 48 49 50
000
ASUS43 KLSX 031859
RWRMO

WEATHER SUMMARY FOR MISSOURI
NATIONAL WEATHER SERVICE SPRINGFIELD MO
200 PM CDT FRI JUL 03 2015

NOTE: "FAIR" INDICATES FEW OR NO CLOUDS BELOW 12,000 FEET WITH NO
       SIGNIFICANT WEATHER AND/OR OBSTRUCTIONS TO VISIBILITY.
       CURRENT SKY AND/OR WEATHER CONDITIONS ARE NOT AVAILABLE FOR
       CHILLICOTHE AND FARMINGTON.

MOZ001>031-035>038-043-044-053-054-032000-
...NORTHERN AND WESTERN MISSOURI...

CITY           SKY/WX    TMP DP  RH WIND       PRES   REMARKS
KANSAS CTY INT MOSUNNY   77  58  51 NE9       29.98S
KANSAS C DTWN  SUNNY     80  58  46 N10       29.95F
LEE`S SUMMIT   SUNNY     77  58  51 NE9       29.97S
ST JOSEPH      SUNNY     78  54  43 NE8       29.98F
CHILLICOTHE      N/A     79  61  53 N7        29.98F
KIRKSVILLE     MOSUNNY   77  59  53 N8        29.99F

$$
MOZ066>068-077>081-088>096-101>105-032000-
...SOUTHWEST MISSOURI...

CITY           SKY/WX    TMP DP  RH WIND       PRES   REMARKS
SPRINGFIELD    PTSUNNY   78  68  71 NE16      29.92F
JOPLIN         RAIN      71  68  90 NE9       29.92R FOG

$$
MOZ032>034-039>042-045>050-055>058-069>072-032000-
...CENTRAL MISSOURI...

CITY           SKY/WX    TMP DP  RH WIND       PRES   REMARKS
COLUMBIA       SUNNY     80  61  52 NE6       29.95F
JEFFERSON CITY SUNNY     79  56  45 NE6       29.93F
ROLLA          SUNNY     78  62  57 N7        29.93F
SEDALIA        SUNNY     80  64  58 VRB6      29.96F
OSAGE BEACH    CLOUDY    75  64  69 NE7       29.94S

$$
MOZ051-052-059>065-032000-
...EAST CENTRAL MISSOURI...

CITY           SKY/WX    TMP DP  RH WIND       PRES   REMARKS
ST LOUIS INTL  PTSUNNY   81  66  60 N12       29.92F
SPIRIT OF STL  PTSUNNY   80  66  62 N7        29.91S
ST CHARLES     SUNNY     79  67  66 N7        29.91F

$$
MOZ072>076-082>087-097>100-106>115-032000-
...SOUTH CENTRAL AND SOUTHEAST MISSOURI...

CITY           SKY/WX    TMP DP  RH WIND       PRES   REMARKS
CAPE GIRARDEAU LGT RAIN  76  71  85 N12       29.89F
FARMINGTON     PTSUNNY   75  64  69 NW3       29.96F
POPLAR BLUFF   MOSUNNY   80  70  71 VRB5      29.89F
WEST PLAINS    LGT RAIN  73  68  84 SE3       29.94F

$$


USA.gov is the U.S. government's official web portal to all federal, state and local government web resources and services.